OpenBCM V2.0.2 (Linux)

Packet Radio Mailbox

IZ3LSV

[San Dona' di P. JN]

 Login: GUEST





  
LU9DMG > KEPLER   26.12.15 15:15l 311 Lines 16272 Bytes #999 (0) @ WW
BID : 290100LU9DMG
Read: GUEST
Subj: Keplerian Elements NASA Format
Path: IZ3LSV<IQ5KG<IK1NHL<CX2SA<LU9DMG
Sent: 151226/1302Z 11808@LU9DMG.BA.ARG.SA [Tortuguitas] FBB7.00e $:290100LU9DMG
From: LU9DMG@LU9DMG.BA.ARG.SA
To  : KEPLER@WW


OSCAR 7 (AO-7)          
1 07530U 74089B   15359.54006272 -.00000048  00000-0 -26340-4 0  9995
2 07530 101.5495 329.7322 0011778 291.7396 181.7405 12.53618649881234
PHASE 3B (AO-10)
1 14129U 83058B   15357.59838926 -.00000072  00000-0  00000-0 0  9992
2 14129  26.3372 121.2089 6043936 160.0123 236.9121  2.05869208216664
UOSAT 2 (UO-11)         
1 14781U 84021B   15359.38001811  .00000620  00000-0  83318-4 0  9996
2 14781  97.7762  51.4958 0009062 157.7981 202.3627 14.82624897710357
AO-16
1 20439U 90005D   15357.90388235  .00000098  00000-0  52139-4 0  9992
2 20439  98.5589 291.4609 0010234 325.7226  76.3495 14.32597505353907
LUSAT (LO-19)           
1 20442U 90005G   15359.41263811  .00000103  00000-0  53950-4 0  9995
2 20442  98.5295 291.9243 0010873 306.8620  53.1567 14.32786559354320
EYESAT-1 (AO-27)        
1 22825U 93061C   15359.85339199  .00000071  00000-0  45062-4 0  9997
2 22825  98.7356 310.2582 0009465 105.5476 254.6751 14.29927707160322
ITAMSAT (IO-26)         
1 22826U 93061D   15359.09769712  .00000094  00000-0  53527-4 0  9992
2 22826  98.7299 309.6443 0010021  99.9827 260.2486 14.30248986160373
RADIO ROSTO (RS-15)     
1 23439U 94085A   15358.87048387 -.00000033  00000-0  28060-3 0  9990
2 23439  64.8165  13.0833 0160546 338.3514  21.0678 11.27564028864659
NOAA-14
1 23455U 94089A   15358.47904334  .00000022  00000-0  34315-4 0  9999
2 23455  98.7391  75.8942 0008447 256.4730 231.2156 14.14063428 82422
JAS-2 (FO-29)           
1 24278U 96046B   15359.43663991 -.00000018  00000-0  21417-4 0  9991
2 24278  98.5705 302.6101 0349516 295.2604  61.2698 13.53062405955884
NOAA 15                 
1 25338U 98030A   15359.54445543  .00000119  00000-0  69287-4 0  9995
2 25338  98.7795 358.3823 0010245 338.5319  21.5429 14.25689506916100
TECHSAT 1B (GO-32)      
1 25397U 98043D   15359.41217314  .00000035  00000-0  34300-4 0  9998
2 25397  98.5461 304.0925 0002250 109.7922 250.3500 14.23576089906996
SO-33
1 25509U 98061B   15358.86663535  .00000451  00000-0  75250-4 0  9992
2 25509  31.4332 250.2309 0347707 305.3030  51.5542 14.30109826896731
ISS (ZARYA)             
1 25544U 98067A   15359.93621446  .00012244  00000-0  18495-3 0  9991
2 25544  51.6436 207.1245 0008195 323.3955 113.1943 15.55124135977873
TERRA
1 25994U 99068A   15359.39390070  .00000336  00000-0  84723-4 0  9995
2 25994  98.2081  71.1984 0001110  86.9595 273.1728 14.57099820852060
NOAA-16
1 26536U 00055A   15358.49029020  .00000076  00000-0  64737-4 0  9994
2 26536  98.9208  64.0719 0011286  57.5293 302.6968 14.13128888786544
PCSAT (NO-44)           
1 26931U 01043C   15359.60349516  .00000089  00000-0  65987-4 0  9992
2 26931  67.0518  43.3098 0007244 275.5953  84.4322 14.30372906743170
AQUA
1 27424U 02022A   15359.23340074  .00000526  00000-0  12677-3 0  9990
2 27424  98.2159 297.2906 0001548  56.1245  82.0526 14.57109541725645
NOAA-17
1 27453U 02032A   15358.51703160  .00000058  00000-0  42574-4 0  9992
2 27453  98.3616 335.2911 0011524 350.2683   9.8273 14.24915248701760
SAUDISAT 1C (SO-50)     
1 27607U 02058C   15359.38735955  .00000798  00000-0  13310-3 0  9990
2 27607  64.5556 334.8694 0081102 251.9385 107.2869 14.74998016699485
CUTE-1 (CO-55)          
1 27844U 03031E   15359.52091747  .00000231  00000-0  12448-3 0  9998
2 27844  98.6942   5.3135 0010719 106.5213 253.7143 14.21893244647626
CUBESAT XI-IV (CO-57)   
1 27848U 03031J   15359.51852601  .00000187  00000-0  10522-3 0  9996
2 27848  98.7040   5.3166 0010607 113.7274 246.5017 14.21527421647527
MOZHAYETS 4 (RS-22)     
1 27939U 03042A   15359.50906306  .00000562  00000-0  11015-3 0  9995
2 27939  97.8601 153.1827 0013637 136.5532 223.6749 14.66270132654229
AO-51
1 28375U 04025K   15358.40540420  .00000159  00000-0  59514-4 0  9990
2 28375  98.3128 293.5651 0083765 114.8027 246.1905 14.41734023603905
HAMSAT (VO-52)          
1 28650U 05017B   15359.10763395  .00001582  00000-0  17741-3 0  9990
2 28650  97.5908 343.1518 0025286 117.5322 242.8469 14.87930429575830
NOAA 18                 
1 28654U 05018A   15359.49602338  .00000096  00000-0  77645-4 0  9995
2 28654  99.1943 356.9147 0014844 141.8882 218.3341 14.12257473546070
CUBESAT XI-V (CO-58)    
1 28895U 05043F   15359.16003925  .00000714  00000-0  14761-3 0  9997
2 28895  97.8208 177.0152 0018047  55.3084 304.9816 14.63035300541518
PEHUENSAT 1 (PO-63)
1 29712U 07001D   15358.51324359  .00011442  00000-0  76298-3 0  9990
2 29712  97.5937  17.5994 0007164 341.0373  19.0587 15.07203780485737
CUTE-1.7+APD II (CO-65) 
1 32785U 08021C   15359.80333901  .00001246  00000-0  14373-3 0  9990
2 32785  97.6252  36.0891 0014075 148.5456 211.6605 14.87296410414704
DELFI-C3 (DO-64)        
1 32789U 08021G   15359.72398198  .00006875  00000-0  53086-3 0  9991
2 32789  97.6255  56.9439 0012641 127.1533 233.0849 15.01804650415804
SEEDS II (CO-66)        
1 32791U 08021J   15359.53725954  .00002039  00000-0  21996-3 0  9990
2 32791  97.6270  38.4059 0014643 141.1678 219.0595 14.89376289414793
YUBILEINY (RS-30)       
1 32953U 08025A   15359.71110627  .00000010  00000-0 -13620-7 0  9996
2 32953  82.5022 215.1350 0019560  23.9169 336.2817 12.43066035344406
PRISM (HITOMI)          
1 33493U 09002B   15359.87672806  .00004480  00000-0  42195-3 0  9990
2 33493  98.2334 206.6054 0017012  61.3924 298.9001 14.94276333375198
KKS-1 (KISEKI)          
1 33499U 09002H   15359.51373540  .00000842  00000-0  13374-3 0  9995
2 33499  98.2619 140.3756 0008147 297.0305  63.0071 14.74808454371808
NOAA 19                 
1 33591U 09005A   15359.49312390  .00000169  00000-0  11721-3 0  9990
2 33591  99.0165 310.0664 0014008 355.2596   4.8440 14.12020401354480
RS-38
1 35869U 09049E   15358.74438028  .00000022  00000-0  28544-4 0  9992
2 35869  98.4697  31.5660 0003633 283.8768  76.1994 14.22322647325340
SWISSCUBE               
1 35932U 09051B   15359.27852304  .00000769  00000-0  18672-3 0  9990
2 35932  98.4276 119.5302 0008812 110.0802 250.1344 14.55658833331769
ITUPSAT 1               
1 35935U 09051E   15359.28433522  .00000599  00000-0  14989-3 0  9999
2 35935  98.4403 120.7879 0009301 113.8453 246.3719 14.55041302331719
XIWANG-1 (HOPE-1)       
1 36122U 09072B   15359.77773950 -.00000059  00000-0 -43517-4 0  9990
2 36122 100.1692  37.5245 0007768  43.1256 317.0467 13.16331378289665
TISAT 1                 
1 36799U 10035E   15359.80389388  .00001919  00000-0  20848-3 0  9998
2 36799  98.0227 102.5891 0011618 301.3490  58.6589 14.89292136295469
AUBIESAT
1 37854U 11061E   15358.17647257  .00004506  00000-0  26358-3 0  9999
2 37854 101.6968 307.2230 0177661 232.4103 126.0861 15.00550734225687
M-CUBED & EXP-1 PRIME   
1 37855U 11061F   15359.80305992  .00006137  00000-0  34638-3 0  9990
2 37855 101.7142 307.8465 0192481 231.2762 127.1103 14.99485567225841
RS-40
1 38735U 12041C   15358.77744651  .00000040  00000-0  21992-3 0  9997
2 38735  82.4751 301.1320 0017457 122.0743 238.2034 12.42570218154585
AIST-2                  
1 39133U 13015D   15359.85136522  .00001859  00000-0  14780-3 0  9990
2 39133  64.8744 189.1874 0016537 210.5303 244.9865 15.03541060147193
TURKSAT-3USAT
1 39152U 13018C   15359.30037030  .00001362  00000-0  18796-3 0  9998
2 39152  97.9797  80.1200 0016902 356.3438   3.7647 14.79703800143713
CUBEBUG-1 (CAPITAN BETO)
1 39153U 13018D   15359.83009387  .00001173  00000-0  16318-3 0  9999
2 39153  98.0081  83.5965 0016978 358.3764   1.7389 14.79629900143814
ESTCUBE 1               
1 39161U 13021C   15359.71009303  .00001176  00000-0  19754-3 0  9997
2 39161  98.0617  80.8865 0010938  67.3685 292.8680 14.71473322141403
TRITON-1
1 39427U 13066M   15358.67047060  .00001059  00000-0  18012-3 0  9993
2 39427  97.6906  37.9833 0113774 278.7642  80.0693 14.66971019111784
DELFIN3XT
1 39428U 13066N   15358.07468998  .00001706  00000-0  28794-3 0  9992
2 39428  97.6926  35.4347 0121885 286.7193  72.0665 14.65926743111550
GOMX 1
1 39430U 13066Q   15359.38114840  .00001368  00000-0  26102-3 0  9999
2 39430  97.6872  28.4941 0151932 307.4621  51.2836 14.58380445111248
EAGLE 2                 
1 39436U 13066W   15359.75051710  .00027382  00000-0  14782-2 0  9996
2 39436  97.7309  77.8508 0019113 168.2424 191.9258 15.14544431114406
FIRST-MOVE
1 39439U 13066Z   15358.43447497  .00002942  00000-0  38188-3 0  9996
2 39439  97.7061  52.0304 0066496 238.5586 120.9115 14.79949984112627
CUBEBUG-2 (LO-74)       
1 39440U 13066AA  15359.20273587  .00001337  00000-0  19666-3 0  9998
2 39440  97.6996  48.0424 0080231 249.8313 109.4254 14.74910247112484
FUNCUBE-1 (AO-73)       
1 39444U 13066AE  15359.16278808  .00001544  00000-0  20164-3 0  9993
2 39444  97.7071  54.7178 0058224 231.8259 127.7701 14.80739337111676
UWE-3                   
1 39446U 13066AG  15359.14787415  .00001302  00000-0  18281-3 0  9991
2 39446  97.7023  50.9950 0069959 241.7591 117.6545 14.77423982111448
AIST 1
1 39492U 13078C   15359.47369727  .00001148  00000-0  12442-3 0  9994
2 39492  82.4180 338.0045 0021111  25.2399 334.9858 14.87229997107995
COSMOS 2491
1 39497U 13076E   15357.70840637  .00000024  00000-0  10000-3 0  9995
2 39497  82.4860  34.9092 0017793 164.1297 196.0331 12.42671516 90306
COSMOS 2499
1 39765U 14028E   15357.70737573  .00000021  00000-0  40130-4 0  9990
2 39765  82.4323 317.9863 0228404 351.8236   7.9169 12.83484155 74272
SPROUT                  
1 39770U 14029E   15359.11458120  .00004232  00000-0  50626-3 0  9990
2 39770  97.8728  93.4407 0008311 299.1043  60.9221 14.84657050 85954
UNISAT-6
1 40012U 14033C   15359.51529596  .00001157  00000-0  18289-3 0  9998
2 40012  97.9224 247.1173 0058047 226.8302 132.8048 14.73115811 81472
